Hourly Data Report for October 01, 2017

All times are specified in Local Standard Time (LST). Add 1 hour to adjust for Daylight Saving Time where and when it is observed.

SAINT JOHN A
NEW BRUNSWICK

45°18'58.000" N
65°53'24.000" W
108.80 m
8104901
71609
YSJ

Download Data

Hourly Data (October 2017)
Hourly Data Report for October 1, 2017
Temp Definition
°C
Dew Point Temp Definition
°C
Rel Hum Definition
%
Wind Dir Definition
10's deg

Wind Spd Definition
km/h
Visibility Definition
km
Stn Press Definition
kPa
Hmdx Definition


Wind Chill Definition


Weather Definition


TIME
00:00 Legend Double Dagger -1.1 -1.8 95 36 2 24.1 101.18   -2 LegendNANA
01:00 Legend Double Dagger -2.4 -2.8 97 0 1 24.1 101.17   -3 LegendNANA
02:00 Legend Double Dagger -1.9 -2.2 98 1 3 24.1 101.18   -3 Clear
03:00 Legend Double Dagger -1.4 -1.6 99 36 3 0.8 101.15   -2 Freezing Fog
04:00 Legend Double Dagger -2.4 -2.7 98 36 1 9.7 101.13   -3 LegendNANA
05:00 Legend Double Dagger -3.4 -3.8 97 0 1 24.1 101.10   -4 Clear
06:00 Legend Double Dagger -3.4 -3.9 96 0 1 24.1 101.09   -4 LegendNANA
07:00 Legend Double Dagger -1.7 -2.0 97 3 3 24.1 101.08   -3 LegendNANA
08:00 Legend Double Dagger 5.2 3.6 90 0 1 24.1 101.10     Mainly Clear
09:00 Legend Double Dagger 9.3 2.9 64 28 11 24.1 101.08     LegendNANA
10:00 Legend Double Dagger 11.4 1.4 50 29 19 24.1 101.05     LegendNANA
11:00 Legend Double Dagger 13.3 2.3 47 28 14 24.1 100.99     Mainly Clear
12:00 Legend Double Dagger 15.3 2.1 41 24 15 24.1 100.90     LegendNANA
13:00 Legend Double Dagger 15.1 4.4 48 21 21 24.1 100.83     LegendNANA
14:00 Legend Double Dagger 14.9 4.4 49 22 27 24.1 100.76     Clear
15:00 Legend Double Dagger 14.5 5.5 55 22 28 24.1 100.68     LegendNANA
16:00 Legend Double Dagger 14.0 4.6 53 22 25 24.1 100.65     LegendNANA
17:00 Legend Double Dagger 12.8 7.0 68 22 23 24.1 100.64     Clear
18:00 Legend Double Dagger 11.2 7.6 79 21 20 24.1 100.66     LegendNANA
19:00 Legend Double Dagger 10.3 8.1 86 23 12 24.1 100.69     LegendNANA
20:00 Legend Double Dagger 9.8 7.8 88 23 10 24.1 100.75     Clear
21:00 Legend Double Dagger 8.1 6.8 92 31 3 24.1 100.75     LegendNANA
22:00 Legend Double Dagger 6.6 5.2 91 36 2 24.1 100.75     LegendNANA
23:00 Legend Double Dagger 9.3 5.0 74 31 13 24.1 100.73     Clear

Notes on Data Quality.

Legend

  • E = Estimated
  • M = Missing
  • NA = Not Available
  • ‡ = Partner data that is not subject to review by the National Climate Archives
Date modified: